Weather History for Westhampton Beach, NY

Change the Weather History Date:

Wednesday, May 8, 2013

  Actual Average Record
Temperature  
Mean Temperature 58 °F -  
Max Temperature 66 °F 62 °F 82 °F (2000)
Min Temperature 53 °F 42 °F 27 °F (2001)
Degree Days  
Heating Degree Days 6    
Growing Degree Days 8 (Base 50)    
Moisture  
Dew Point 56 °F    
Average Humidity 91    
Maximum Humidity 100    
Minimum Humidity 77    
Precipitation  
Precipitation 0.13 in - - ()
Sea Level Pressure  
Sea Level Pressure 30.07 in    
Wind  
Wind Speed 8 mph (ESE)    
Max Wind Speed 18 mph    
Max Gust Speed 28 mph    
Visibility 6 miles    
Events Fog , Rain    
Averages and records for this station are not official NWS values.
T = Trace of Precipitation, MM = Missing Value Source: NWS Daily Summary

Daily Weather History Graph

Daily Weather History Graph

Search for Another Location

Airport:

Trip Planner

Search our weather history database for the weather conditions in past years. The results will help you decide how hot, cold, wet, or windy it might be!

Date:

Astronomy

May. 08, 2013 Rise Set
Actual Time 5:40 AM EDT 7:54 PM EDT
Civil Twilight 5:09 AM EDT 8:24 PM EDT
Nautical Twilight 4:32 AM EDT 9:02 PM EDT
Astronomical Twilight 3:50 AM EDT 9:44 PM EDT
Moon 4:47 AM EDT (5/8) 6:49 PM EDT (5/8)
Length of Visible Light 15h 15m
Length of Day
14h 14m
Waning Crescent, 2% of the Moon is Illuminated
May 8
Waning Crescent
May 9
New
May 18
First Quarter
May 25
Full
May 31
Last Quarter

Hourly Weather History & Observations

Time (EDT) Temp. Dew Point Humidity Pressure Visibility Wind Dir Wind Speed Gust Speed Precip Events Conditions
12:53 AM 57.9 °F 55.0 °F 90% 30.14 in 10.0 mi ESE 3.5 mph - N/A   Mostly Cloudy
1:53 AM 57.9 °F 54.0 °F 87% 30.13 in 10.0 mi East 5.8 mph 17.3 mph N/A   Clear
2:53 AM 59.0 °F 55.9 °F 90% 30.11 in 10.0 mi SE 10.4 mph 16.1 mph N/A   Scattered Clouds
3:53 AM 59.0 °F 55.0 °F 87% 30.10 in 10.0 mi ESE 10.4 mph 16.1 mph N/A   Clear
4:53 AM 59.0 °F 55.0 °F 87% 30.09 in 10.0 mi ESE 9.2 mph - N/A   Scattered Clouds
5:53 AM 57.9 °F 55.0 °F 90% 30.10 in 10.0 mi East 8.1 mph - N/A   Mostly Cloudy
6:53 AM 59.0 °F 55.0 °F 87% 30.11 in 10.0 mi ESE 9.2 mph 18.4 mph N/A   Mostly Cloudy
7:53 AM 61.0 °F 57.0 °F 87% 30.11 in 10.0 mi ESE 8.1 mph - N/A   Overcast
8:53 AM 60.1 °F 55.9 °F 86% 30.12 in 10.0 mi ESE 11.5 mph 21.9 mph 0.00 in Rain Light Rain
9:53 AM 59.0 °F 55.9 °F 90% 30.12 in 4.0 mi ESE 10.4 mph 19.6 mph 0.04 in Rain Rain
10:02 AM 59.0 °F 55.4 °F 88% 30.11 in 5.0 mi East 11.5 mph 24.2 mph 0.01 in Rain Light Rain
10:10 AM 59.0 °F 57.2 °F 94% 30.11 in 5.0 mi ESE 11.5 mph 24.2 mph 0.01 in Rain Light Rain
10:53 AM 60.1 °F 57.9 °F 93% 30.09 in 7.0 mi East 10.4 mph 18.4 mph 0.03 in Rain Light Rain
11:05 AM 60.8 °F 59.0 °F 94% 30.08 in 7.0 mi East 13.8 mph 24.2 mph 0.00 in   Overcast
11:18 AM 60.8 °F 60.8 °F 100% 30.09 in 7.0 mi East 9.2 mph 23.0 mph 0.00 in   Overcast
11:49 AM 62.6 °F 60.8 °F 94% 30.08 in 9.0 mi East 12.7 mph 26.5 mph 0.00 in   Mostly Cloudy
11:53 AM 63.0 °F 59.0 °F 87% 30.09 in 10.0 mi ESE 11.5 mph 26.5 mph 0.00 in   Mostly Cloudy
12:32 PM 60.8 °F 57.2 °F 88% 30.07 in 8.0 mi ESE 13.8 mph 25.3 mph N/A   Overcast
12:49 PM 57.2 °F 55.4 °F 94% 30.06 in 2.0 mi East 12.7 mph 23.0 mph 0.03 in Rain Light Rain
12:53 PM 57.9 °F 55.9 °F 93% 30.06 in 4.0 mi ESE 12.7 mph 23.0 mph 0.03 in Rain Light Rain
1:08 PM 57.2 °F 55.4 °F 94% 30.06 in 2.0 mi ESE 13.8 mph 25.3 mph 0.03 in Rain Light Rain
1:21 PM 57.2 °F 55.4 °F 94% 30.06 in 1.2 mi ESE 13.8 mph 24.2 mph 0.03 in   Overcast
1:53 PM 59.0 °F 57.0 °F 93% 30.06 in 2.0 mi ESE 12.7 mph 24.2 mph 0.03 in   Overcast
2:02 PM 60.8 °F 57.2 °F 88% 30.07 in 4.0 mi ESE 18.4 mph 27.6 mph N/A   Overcast
2:53 PM 64.0 °F 59.0 °F 84% 30.06 in 9.0 mi SE 13.8 mph 20.7 mph N/A   Mostly Cloudy
3:06 PM 64.4 °F 57.2 °F 77% 30.06 in 9.0 mi SE 12.7 mph 20.7 mph N/A   Mostly Cloudy
3:26 PM 64.4 °F 59.0 °F 83% 30.05 in 9.0 mi SSE 12.7 mph 19.6 mph N/A   Overcast
3:53 PM 64.0 °F 57.9 °F 80% 30.06 in 10.0 mi South 10.4 mph 19.6 mph N/A   Overcast
4:16 PM 62.6 °F 57.2 °F 82% 30.05 in 10.0 mi South 11.5 mph - N/A   Overcast
4:25 PM 62.6 °F 57.2 °F 82% 30.06 in 9.0 mi South 9.2 mph - N/A   Overcast
4:32 PM 60.8 °F 57.2 °F 88% 30.06 in 8.0 mi South 8.1 mph - N/A   Overcast
4:53 PM 63.0 °F 59.0 °F 87% 30.05 in 9.0 mi South 9.2 mph - N/A   Overcast
5:03 PM 62.6 °F 59.0 °F 88% 30.05 in 10.0 mi SE 8.1 mph - N/A   Overcast
5:21 PM 60.8 °F 57.2 °F 88% 30.05 in 8.0 mi Variable 4.6 mph - N/A   Overcast
5:53 PM 59.0 °F 55.9 °F 90% 30.05 in 5.0 mi Variable 4.6 mph - N/A   Overcast
6:46 PM 57.2 °F 55.4 °F 94% 30.04 in 2.0 mi East 3.5 mph - N/A   Overcast
6:53 PM 57.0 °F 55.0 °F 93% 30.04 in 2.0 mi ESE 3.5 mph - N/A   Overcast
7:10 PM 57.2 °F 55.4 °F 94% 30.05 in 1.0 mi SE 5.8 mph - N/A   Overcast
7:17 PM 57.2 °F 55.4 °F 94% 30.05 in 0.5 mi SE 4.6 mph - N/A Fog Fog
7:27 PM 55.4 °F 55.4 °F 100% 30.06 in 0.2 mi Calm Calm - N/A Fog Fog
7:53 PM 55.9 °F 55.0 °F 97% 30.06 in 0.2 mi East 3.5 mph - N/A Fog Fog
8:29 PM 55.4 °F 53.6 °F 94% 30.05 in 0.2 mi Calm Calm - N/A Fog Fog
8:53 PM 55.9 °F 54.0 °F 93% 30.06 in 0.2 mi ESE 3.5 mph - N/A Fog Fog
9:05 PM 55.4 °F 53.6 °F 94% 30.06 in 0.2 mi ESE 4.6 mph - N/A Fog Fog
9:53 PM 55.0 °F 55.0 °F 100% 30.07 in 0.2 mi Calm Calm - N/A Fog Fog
10:53 PM 54.0 °F 54.0 °F 100% 30.06 in 0.5 mi Calm Calm - N/A Fog Fog
11:05 PM 53.6 °F 53.6 °F 100% 30.06 in 0.2 mi Calm Calm - N/A Fog Fog
11:53 PM 53.1 °F 52.0 °F 96% 30.05 in 0.2 mi NE 3.5 mph - N/A Fog Fog